Location: �terpigny
(49.8910°N, 2.9249°E)
Time: 10:45:22
(UTC+00:00)

Cosmos 1544 Rocket - Pass Details

Date: 24 October 2021
Orbit: 603 x 632 km, 82.5° (Epoch: 30 November)

Event Time Altitude Azimuth Distance (km) Brightness Sun altitude
Rises 17:20:49 0° 166° (SSE) 2,913 7.0 -7.3°
Reaches altitude 10° 17:23:10 10° 158° (SSE) 2,011 6.1 -7.7°
Maximum altitude 17:27:16 37° 91° (E) 996 4.1 -8.3°
Drops below altitude 10° 17:31:22 10° 25° (NNE) 2,021 5.9 -9.0°
Sets 17:33:44 0° 17° (NNE) 2,931 6.8 -9.4°
